Location: Waco, TX
(31.5480°N, 97.1670°W)
Time: 09:21:25
(UTC-05:00)

ISS - Pass Details

Date: 26 May 2017
Orbit: 402 x 409 km, 51.6° (Epoch: 25 May)

Event Time Altitude Azimuth Distance (km) Brightness Sun altitude
Rises 20:48:52 0° 232° (SW) 2,318 0.3 -5.2°
Reaches altitude 10° 20:50:57 10° 236° (SW) 1,461 -0.6 -5.6°
Maximum altitude 20:54:11 58° 317° (NW) 480 -3.0 -6.2°
Drops below altitude 10° 20:57:26 10° 37° (NE) 1,466 -1.1 -6.8°
Sets 20:59:33 0° 41° (NE) 2,328 -0.1 -7.2°
